TimePDT,TemperatureF,Dew PointF,Humidity,Sea Level PressureIn,VisibilityMPH,Wind Direction,Wind SpeedMPH,Gust SpeedMPH,PrecipitationIn,Events,Conditions,WindDirDegrees,DateUTC
12:56 AM,64.9,46.9,52,29.72,10.0,South,3.5,-,N/A,,Clear,190,2013-09-15 07:56:00
1:56 AM,61.0,46.0,58,29.73,10.0,South,4.6,-,N/A,,Clear,170,2013-09-15 08:56:00
2:56 AM,59.0,45.0,60,29.72,10.0,South,5.8,-,N/A,,Clear,190,2013-09-15 09:56:00
3:56 AM,55.9,45.0,67,29.72,10.0,Calm,Calm,-,N/A,,Clear,0,2013-09-15 10:56:00
4:56 AM,54.0,44.1,69,29.71,10.0,SSE,3.5,-,N/A,,Clear,150,2013-09-15 11:56:00
5:56 AM,54.0,44.1,69,29.71,10.0,Calm,Calm,-,N/A,,Clear,0,2013-09-15 12:56:00
6:56 AM,55.0,45.0,69,29.71,10.0,Calm,Calm,-,N/A,,Clear,0,2013-09-15 13:56:00
7:56 AM,62.1,46.0,56,29.71,10.0,Calm,Calm,-,N/A,,Partly Cloudy,0,2013-09-15 14:56:00
8:56 AM,71.1,48.9,45,29.70,10.0,SSE,4.6,-,N/A,,Mostly Cloudy,150,2013-09-15 15:56:00
9:56 AM,75.9,48.0,37,29.69,10.0,ENE,5.8,-,N/A,,Clear,70,2013-09-15 16:56:00
10:56 AM,80.1,45.0,29,29.69,10.0,Calm,Calm,-,N/A,,Clear,0,2013-09-15 17:56:00
11:56 AM,82.9,43.0,24,29.67,10.0,Calm,Calm,-,N/A,,Clear,0,2013-09-15 18:56:00
12:56 PM,87.1,41.0,20,29.64,10.0,West,9.2,-,N/A,,Partly Cloudy,270,2013-09-15 19:56:00
1:56 PM,90.0,28.9,11,29.62,10.0,WSW,15.0,24.2,N/A,,Clear,240,2013-09-15 20:56:00
2:56 PM,91.0,28.9,11,29.61,10.0,SSW,15.0,19.6,N/A,,Clear,210,2013-09-15 21:56:00
3:56 PM,88.0,28.0,12,29.60,10.0,WSW,8.1,-,N/A,,Clear,250,2013-09-15 22:56:00
4:56 PM,82.0,46.0,28,29.62,10.0,NW,18.4,26.5,N/A,,Clear,310,2013-09-15 23:56:00
5:56 PM,73.9,45.0,35,29.67,10.0,NW,17.3,26.5,N/A,,Clear,310,2013-09-16 00:56:00
6:56 PM,71.1,39.0,31,29.71,10.0,NNW,16.1,-,N/A,,Clear,330,2013-09-16 01:56:00
7:56 PM,66.0,43.0,43,29.74,10.0,North,3.5,-,N/A,,Clear,10,2013-09-16 02:56:00
8:56 PM,61.0,45.0,56,29.78,10.0,NNW,10.4,-,N/A,,Clear,340,2013-09-16 03:56:00
9:56 PM,59.0,44.1,58,29.79,10.0,North,9.2,-,N/A,,Clear,350,2013-09-16 04:56:00
10:56 PM,57.9,45.0,62,29.81,10.0,NNE,5.8,-,N/A,,Mostly Cloudy,30,2013-09-16 05:56:00
11:56 PM,55.0,45.0,69,29.83,10.0,East,4.6,-,N/A,,Clear,100,2013-09-16 06:56:00